| time (UTC) | temp F | wind direction | speed MPH | gust MPH | rain 1hr in | rain 24hr in | rain mn in | humidity % | barometer mb |
| 20260901043052 | 0 | 74 | 3.0 | 5.0 | 0.00 | 0.00 | 0.00 | 1003.6 | |
| 20260901041551 | 0 | 62 | 3.0 | 6.0 | 0.00 | 0.00 | 0.00 | 1003.4 | |
| 20260901040108 | 0 | 61 | 2.0 | 5.0 | 0.00 | 0.00 | 0.00 | 1003.6 | |
| 20260901034605 | 0 | 64 | 3.0 | 5.0 | 0.00 | 0.00 | 0.00 | 1003.4 | |
| 20260901033050 | 0 | 64 | 3.0 | 5.0 | 0.00 | 0.00 | 0.00 | 1003.3 | |
| 20260901031549 | 0 | 63 | 2.0 | 5.0 | 0.00 | 0.00 | 0.00 | 1002.9 | |
| 20260901030049 | 0 | 58 | 4.0 | 5.0 | 0.00 | 0.00 | 0.00 | 1002.9 | |
| 20260901024553 | 0 | 59 | 3.0 | 5.0 | 0.00 | 0.00 | 0.00 | 1002.8 | |
| 20260901023059 | 0 | 55 | 2.0 | 4.0 | 0.00 | 0.00 | 0.00 | 1002.9 | |
| 20260901021553 | 0 | 51 | 4.0 | 5.0 | 0.00 | 0.00 | 0.00 | 1002.7 | |
| 20260901020047 | 0 | 123 | 0.0 | 0.0 | 0.00 | 0.00 | 0.00 | 1002.8 | |
| 20260901014552 | 0 | 271 | 0.0 | 0.0 | 0.00 | 0.00 | 0.00 | 1002.8 | |
| 20260901013046 | 0 | 272 | 0.0 | 0.0 | 0.00 | 0.00 | 0.00 | 1002.7 | |
| 20260901011546 | 0 | 256 | 2.0 | 6.0 | 0.00 | 0.00 | 0.00 | 1002.9 | |
| 20260901010042 | 0 | 217 | 5.0 | 10.0 | 0.00 | 0.00 | 0.00 | 1003.1 | |
| 20260901004537 | 0 | 252 | 1.0 | 6.0 | 0.00 | 0.00 | 0.00 | 1003.1 | |
| 20260901003032 | 0 | 281 | 2.0 | 8.0 | 0.00 | 0.00 | 0.00 | 1003.3 | |
| 20260901001528 | 0 | 255 | 6.0 | 10.0 | 0.00 | 0.00 | 0.00 | 1003.3 | |
| 20260901000023 | 0 | 303 | 3.0 | 9.0 | 0.00 | 0.00 | 0.00 | 1003.3 | |
| 20260831234520 | 0 | 236 | 5.0 | 12.0 | 0.00 | 0.00 | 0.00 | 1003.3 | |
| 20260831233015 | 0 | 265 | 5.0 | 13.0 | 0.00 | 0.00 | 0.00 | 1003.3 | |
| 20260831231510 | 0 | 278 | 0.0 | 11.0 | 0.00 | 0.00 | 0.00 | 1003.6 | |
| 20260831230006 | 0 | 250 | 6.0 | 13.0 | 0.00 | 0.00 | 0.00 | 1003.6 | |
| 20260831224502 | 0 | 279 | 8.0 | 12.0 | 0.00 | 0.00 | 0.00 | 1003.6 | |
| 20260831223057 | 0 | 248 | 8.0 | 13.0 | 0.00 | 0.00 | 0.00 | 1003.6 | |
| 20260831221601 | 0 | 246 | 7.0 | 14.0 | 0.00 | 0.00 | 0.00 | 1003.4 | |
| 20260831220100 | 0 | 234 | 6.0 | 9.0 | 0.00 | 0.00 | 0.00 | 1003.5 | |
| 20260831214547 | 0 | 299 | 2.0 | 10.0 | 0.00 | 0.00 | 0.00 | 1003.6 | |
| 20260831213045 | 0 | 284 | 7.0 | 16.0 | 0.00 | 0.00 | 0.00 | 1003.8 | |
| 20260831211544 | 0 | 292 | 6.0 | 15.0 | 0.00 | 0.00 | 0.00 | 1003.8 | |
| 20260831210044 | 0 | 279 | 4.0 | 10.0 | 0.00 | 0.00 | 0.00 | 1003.9 | |
| 20260831204552 | 0 | 51 | 4.0 | 9.0 | 0.00 | 0.00 | 0.00 | 1004.0 | |
| 20260831203045 | 0 | 320 | 6.0 | 14.0 | 0.00 | 0.00 | 0.00 | 1004.2 | |
| 20260831201543 | 0 | 282 | 6.0 | 13.0 | 0.00 | 0.00 | 0.00 | 1004.1 | |
| 20260831200051 | 0 | 259 | 7.0 | 15.0 | 0.00 | 0.00 | 0.00 | 1004.1 | |
| 20260831194540 | 0 | 304 | 5.0 | 12.0 | 0.00 | 0.00 | 0.00 | 1004.3 | |
| 20260831193040 | 0 | 300 | 6.0 | 12.0 | 0.00 | 0.00 | 0.00 | 1004.1 | |
| 20260831191534 | 0 | 306 | 5.0 | 11.0 | 0.00 | 0.00 | 0.00 | 1004.4 | |
| 20260831190024 | 0 | 336 | 6.0 | 13.0 | 0.00 | 0.00 | 0.00 | 1004.6 | |
| 20260831184523 | 0 | 360 | 6.0 | 14.0 | 0.00 | 0.00 | 0.00 | 1004.6 | |
| 20260831183015 | 0 | 298 | 6.0 | 15.0 | 0.00 | 0.00 | 0.00 | 1004.8 | |
| 20260831181511 | 0 | 339 | 7.0 | 16.0 | 0.00 | 0.00 | 0.00 | 1004.7 | |
| 20260831180011 | 0 | 289 | 10.0 | 16.0 | 0.00 | 0.00 | 0.00 | 1004.9 | |
| 20260831174507 | 0 | 309 | 9.0 | 21.0 | 0.00 | 0.00 | 0.00 | 1004.9 | |
| 20260831173058 | 0 | 311 | 8.0 | 22.0 | 0.00 | 0.00 | 0.00 | 1005.0 | |
| 20260831171554 | 0 | 311 | 9.0 | 18.0 | 0.00 | 0.00 | 0.00 | 1004.8 | |
| 20260831170049 | 0 | 296 | 9.0 | 18.0 | 0.00 | 0.00 | 0.00 | 1004.9 | |
| 20260831164556 | 0 | 355 | 10.0 | 20.0 | 0.00 | 0.00 | 0.00 | 1004.8 | |
| 20260831163041 | 0 | 317 | 10.0 | 19.0 | 0.00 | 0.00 | 0.00 | 1004.7 | |
| 20260831161535 | 0 | 24 | 11.0 | 19.0 | 0.00 | 0.00 | 0.00 | 1004.6 | |
| 20260831160030 | 0 | 342 | 12.0 | 21.0 | 0.00 | 0.00 | 0.00 | 1004.5 | |
| 20260831154530 | 0 | 351 | 12.0 | 23.0 | 0.00 | 0.00 | 0.00 | 1004.3 | |
| 20260831153022 | 0 | 322 | 12.0 | 20.0 | 0.00 | 0.00 | 0.00 | 1004.2 | |
| 20260831151517 | 0 | 334 | 12.0 | 23.0 | 0.00 | 0.00 | 0.00 | 1004.2 | |
| 20260831150013 | 0 | 336 | 12.0 | 23.0 | 0.00 | 0.00 | 0.00 | 1004.0 | |
| 20260831144514 | 0 | 337 | 13.0 | 23.0 | 0.00 | 0.00 | 0.00 | 1003.8 | |
| 20260831143014 | 0 | 319 | 11.0 | 24.0 | 0.00 | 0.00 | 0.00 | 1003.5 | |
| 20260831141618 | 0 | 315 | 13.0 | 22.0 | 0.00 | 0.00 | 0.00 | 1003.2 | |
| 20260831140056 | 0 | 309 | 11.0 | 18.0 | 0.00 | 0.00 | 0.00 | 1003.1 | |
| 20260831134555 | 0 | 297 | 9.0 | 15.0 | 0.00 | 0.00 | 0.00 | 1002.8 | |
| 20260831133046 | 0 | 302 | 9.0 | 15.0 | 0.00 | 0.00 | 0.00 | 1002.8 | |
| 20260831131543 | 0 | 301 | 8.0 | 16.0 | 0.00 | 0.00 | 0.00 | 1002.6 | |
| 20260831130037 | 0 | 315 | 9.0 | 14.0 | 0.00 | 0.00 | 0.00 | 1002.3 | |
| 20260831124533 | 0 | 332 | 11.0 | 19.0 | 0.00 | 0.00 | 0.00 | 1002.2 | |
| 20260831123027 | 0 | 315 | 11.0 | 18.0 | 0.00 | 0.00 | 0.00 | 1002.2 | |
| 20260831121523 | 0 | 341 | 12.0 | 19.0 | 0.00 | 0.00 | 0.00 | 1002.0 | |
| 20260831120033 | 0 | 330 | 10.0 | 20.0 | 0.00 | 0.00 | 0.00 | 1002.0 | |
| 20260831114526 | 0 | 300 | 10.0 | 16.0 | 0.00 | 0.00 | 0.00 | 1001.9 | |
| 20260831113010 | 0 | 295 | 8.0 | 16.0 | 0.00 | 0.00 | 0.00 | 1001.9 | |
| 20260831111506 | 0 | 300 | 10.0 | 18.0 | 0.00 | 0.00 | 0.00 | 1002.1 | |
| 20260831110002 | 0 | 298 | 10.0 | 19.0 | 0.00 | 0.00 | 0.00 | 1002.1 | |
| 20260831104559 | 0 | 284 | 11.0 | 24.0 | 0.00 | 0.00 | 0.00 | 1002.2 | |
| 20260831103052 | 0 | 275 | 12.0 | 24.0 | 0.00 | 0.00 | 0.00 | 1002.2 | |
| 20260831101548 | 0 | 328 | 11.0 | 20.0 | 0.00 | 0.00 | 0.00 | 1002.0 | |
| 20260831100047 | 0 | 319 | 10.0 | 22.0 | 0.00 | 0.00 | 0.00 | 1001.5 | |
| 20260831094539 | 0 | 309 | 7.0 | 16.0 | 0.00 | 0.00 | 0.00 | 1001.3 | |
| 20260831093045 | 0 | 299 | 7.0 | 19.0 | 0.00 | 0.00 | 0.00 | 1001.2 | |
| 20260831091530 | 0 | 263 | 7.0 | 14.0 | 0.00 | 0.00 | 0.00 | 1001.1 | |
| 20260831090026 | 0 | 268 | 5.0 | 15.0 | 0.00 | 0.00 | 0.00 | 1001.1 | |
| 20260831084523 | 0 | 302 | 6.0 | 12.0 | 0.00 | 0.00 | 0.00 | 1001.2 | |
| 20260831083016 | 0 | 306 | 4.0 | 10.0 | 0.00 | 0.00 | 0.00 | 1000.9 | |
| 20260831081513 | 0 | 278 | 6.0 | 10.0 | 0.00 | 0.00 | 0.00 | 1000.7 | |
| 20260831080007 | 0 | 299 | 4.0 | 11.0 | 0.00 | 0.00 | 0.00 | 1000.8 | |
| 20260831074503 | 0 | 267 | 6.0 | 10.0 | 0.00 | 0.00 | 0.00 | 1000.9 | |
| 20260831073100 | 0 | 285 | 5.0 | 16.0 | 0.00 | 0.00 | 0.00 | 1001.0 | |
| 20260831071556 | 0 | 317 | 8.0 | 16.0 | 0.00 | 0.00 | 0.00 | 1000.5 | |
| 20260831070050 | 0 | 292 | 10.0 | 20.0 | 0.00 | 0.00 | 0.00 | 1000.4 | |
| 20260831064546 | 0 | 299 | 9.0 | 20.0 | 0.00 | 0.00 | 0.00 | 1000.3 | |
| 20260831063042 | 0 | 11 | 11.0 | 25.0 | 0.00 | 0.00 | 0.00 | 1000.1 | |
| 20260831061540 | 0 | 326 | 11.0 | 23.0 | 0.00 | 0.00 | 0.00 | 1000.0 | |
| 20260831060033 | 0 | 271 | 12.0 | 24.0 | 0.00 | 0.00 | 0.00 | 999.9 | |
| 20260831054532 | 0 | 288 | 13.0 | 26.0 | 0.00 | 0.00 | 0.00 | 1000.2 | |
| 20260831053031 | 0 | 234 | 9.0 | 26.0 | 0.00 | 0.00 | 0.00 | 1000.3 | |
| 20260831051533 | 0 | 296 | 10.0 | 20.0 | 0.00 | 0.00 | 0.00 | 1000.3 | |
| 20260831050030 | 0 | 299 | 9.0 | 22.0 | 0.00 | 0.01 | 0.00 | 1000.0 | |
| 20260831044530 | 0 | 313 | 11.0 | 20.0 | 0.00 | 0.01 | 0.00 | 1000.0 |